CW0815 Weather Reports


time (UTC)temp
C
wind
direction
speed
KPH
gust
KPH
rain 1hr
cm
rain 24hr
cm
rain mn
cm
humidity
%
barometer
mb
20260504082000 12 162 1.6 3.2 0.00 0.00 0.00 64 1014.4
20260504081502 12 162 1.6 4.8 0.00 0.00 0.00 64 1014.6
20260504081007 12 162 0.0 4.8 0.00 0.00 0.00 63 1014.5
20260504080511 12 155 1.6 6.4 0.00 0.00 0.00 64 1014.5
20260504080117 12 155 1.6 6.4 0.00 0.00 0.00 63 1014.5
20260504070104 12 182 1.6 6.4 0.00 0.00 0.00 63 1015.0
20260504060126 12 325 1.6 3.2 0.00 0.00 0.00 62 1015.6
20260504050545 13 158 0.0 12.9 0.00 0.00 0.00 59 1015.3
20260504050015 13 135 3.2 11.3 0.00 0.00 0.00 59 1015.1
20260504045603 13 171 3.2 11.3 0.00 0.00 0.00 59 1015.3
20260504045104 13 187 3.2 9.7 0.00 0.00 0.00 59 1015.3
20260504044502 13 141 1.6 6.4 0.00 0.00 0.00 59 1015.5
20260504044007 13 160 1.6 6.4 0.00 0.00 0.00 59 1015.5
20260504043520 13 147 1.6 6.4 0.00 0.00 0.00 58 1015.7
20260504043115 13 164 3.2 6.4 0.00 0.00 0.00 58 1015.8
20260504042550 13 178 1.6 4.8 0.00 0.00 0.00 58 1015.9
20260504042054 13 174 1.6 6.4 0.00 0.00 0.00 57 1015.9
20260504041549 13 169 3.2 9.7 0.00 0.00 0.00 57 1016.1
20260504041050 13 184 1.6 8.0 0.00 0.00 0.00 56 1016.1
20260504040550 13 129 3.2 6.4 0.00 0.00 0.00 56 1016.1
20260504040054 13 180 1.6 6.4 0.00 0.00 0.00 56 1016.1
20260504035533 13 181 1.6 8.0 0.00 0.00 0.00 55 1016.2
20260504035038 13 184 3.2 8.0 0.00 0.00 0.00 55 1016.3
20260504034540 13 182 1.6 4.8 0.00 0.00 0.00 55 1016.4
20260504034042 13 182 1.6 4.8 0.00 0.00 0.00 54 1016.4
20260504033550 14 186 1.6 4.8 0.00 0.00 0.00 54 1016.5
20260504033012 14 186 1.6 4.8 0.00 0.00 0.00 54 1016.3
20260504032532 14 186 1.6 4.8 0.00 0.00 0.00 53 1016.5
20260504032030 14 186 1.6 3.2 0.00 0.00 0.00 53 1016.5
20260504031529 14 186 1.6 4.8 0.00 0.00 0.00 53 1016.6
20260504031024 14 187 1.6 4.8 0.00 0.00 0.00 53 1016.6
20260504030524 14 187 1.6 4.8 0.00 0.00 0.00 53 1016.7
20260504030122 14 187 0.0 4.8 0.00 0.00 0.00 53 1016.7
20260504025558 14 153 1.6 4.8 0.00 0.00 0.00 53 1016.6
20260504025103 14 153 1.6 4.8 0.00 0.00 0.00 53 1016.5
20260504024606 14 153 1.6 4.8 0.00 0.00 0.00 52 1016.6
20260504024016 14 153 1.6 4.8 0.00 0.00 0.00 52 1016.5
20260504023518 15 153 1.6 3.2 0.00 0.00 0.00 52 1016.6
20260504023117 15 153 0.0 4.8 0.00 0.00 0.00 52 1016.6
20260504022554 15 153 1.6 4.8 0.00 0.00 0.00 52 1016.5
20260504022054 15 146 1.6 4.8 0.00 0.00 0.00 52 1016.4
20260504021556 15 113 0.0 3.2 0.00 0.00 0.00 52 1016.4
20260504021100 15 113 1.6 3.2 0.00 0.00 0.00 51 1016.2
20260504020602 15 171 1.6 3.2 0.00 0.00 0.00 51 1016.1
20260504020142 15 172 1.6 3.2 0.00 0.00 0.00 51 1016.2
20260504015536 15 172 1.6 3.2 0.00 0.00 0.00 51 1016.1
20260504015039 15 172 1.6 4.8 0.00 0.00 0.00 50 1016.2
20260504014558 15 172 0.0 4.8 0.00 0.00 0.00 50 1016.1
20260504014046 15 172 1.6 4.8 0.00 0.00 0.00 49 1015.9
20260504013550 15 172 1.6 3.2 0.00 0.00 0.00 49 1016.0
20260504013103 15 172 1.6 4.8 0.00 0.00 0.00 49 1015.9
20260504012526 15 172 3.2 6.4 0.00 0.00 0.00 49 1015.7
20260504012028 15 175 1.6 6.4 0.00 0.00 0.00 48 1015.8
20260504011534 15 188 1.6 4.8 0.00 0.00 0.00 49 1015.7
20260504011035 15 188 1.6 4.8 0.00 0.00 0.00 49 1015.8
20260504010536 15 188 3.2 4.8 0.00 0.00 0.00 48 1015.9
20260504010006 15 247 1.6 3.2 0.00 0.00 0.00 48 1016.0
20260504005510 16 257 1.6 3.2 0.00 0.00 0.00 48 1016.0
20260504005025 16 257 1.6 3.2 0.00 0.00 0.00 48 1016.0
20260504004532 16 257 0.0 3.2 0.00 0.00 0.00 47 1016.2
20260504004022 16 257 0.0 1.6 0.00 0.00 0.00 47 1016.2
20260504003525 16 257 0.0 1.6 0.00 0.00 0.00 47 1016.3
20260504003120 16 257 0.0 1.6 0.00 0.00 0.00 46 1016.2
20260504002556 16 257 0.0 1.6 0.00 0.00 0.00 46 1016.1
20260504002058 17 257 0.0 1.6 0.00 0.00 0.00 46 1016.2
20260504001623 17 257 0.0 1.6 0.00 0.00 0.00 45 1016.1
20260504001105 17 257 0.0 1.6 0.00 0.00 0.00 45 1016.2
20260504000503 17 257 0.0 1.6 0.00 0.00 0.00 45 1016.2
20260504000122 17 257 0.0 1.6 0.00 0.00 0.00 44 1016.3
20260503235544 17 257 0.0 1.6 0.00 0.00 0.00 44 1016.3
20260503235048 17 257 0.0 1.6 0.00 0.00 0.00 45 1016.3
20260503234556 17 257 0.0 3.2 0.00 0.00 0.00 44 1016.4
20260503234054 18 258 0.0 3.2 0.00 0.00 0.00 44 1016.5
20260503233558 18 258 1.6 3.2 0.00 0.00 0.00 42 1016.6
20260503233109 18 258 1.6 3.2 0.00 0.00 0.00 42 1016.8
20260503232536 18 257 0.0 3.2 0.00 0.00 0.00 44 1016.8
20260503232034 18 257 0.0 4.8 0.00 0.00 0.00 42 1016.8
20260503231536 18 253 0.0 4.8 0.00 0.00 0.00 41 1016.8
20260503231034 18 251 3.2 4.8 0.00 0.00 0.00 41 1016.8
20260503230536 18 284 1.6 4.8 0.00 0.03 0.00 41 1017.0
20260503230006 18 265 1.6 6.4 0.00 0.03 0.00 41 1017.0
20260503225519 18 265 1.6 6.4 0.00 0.03 0.00 39 1017.2
20260503225012 18 295 1.6 6.4 0.00 0.03 0.00 39 1017.1
20260503224514 18 277 3.2 6.4 0.00 0.03 0.00 39 1017.1
20260503224029 18 312 1.6 4.8 0.00 0.03 0.00 41 1017.0
20260503223525 18 229 0.0 4.8 0.00 0.03 0.00 43 1017.0
20260503223116 18 118 0.0 9.7 0.00 0.03 0.00 42 1017.1
20260503222545 18 186 1.6 9.7 0.00 0.03 0.00 41 1017.2
20260503222049 19 189 1.6 4.8 0.00 0.03 0.00 39 1017.2
20260503221551 20 258 0.0 6.4 0.00 0.03 0.00 39 1017.4
20260503221050 20 267 1.6 6.4 0.00 0.03 0.00 37 1017.5
20260503220554 20 262 1.6 8.0 0.00 0.05 0.00 37 1017.5
20260503220008 20 281 3.2 8.0 0.00 0.05 0.00 37 1017.5
20260503215511 20 292 1.6 3.2 0.00 0.05 0.00 39 1017.5
20260503215016 20 292 0.0 9.7 0.00 0.05 0.00 37 1017.7
20260503214530 20 292 3.2 9.7 0.00 0.05 0.00 36 1017.7
20260503214032 20 255 1.6 6.4 0.00 0.05 0.00 39 1017.8
20260503213532 20 311 3.2 6.4 0.00 0.05 0.00 39 1017.8
20260503213128 20 304 0.0 6.4 0.00 0.05 0.00 39 1017.9
20260503212558 20 296 1.6 6.4 0.00 0.05 0.00 38 1018.1
20260503212102 20 291 1.6 6.4 0.00 0.05 0.00 39 1018.1
20260503211600 20 290 3.2 12.9 0.00 0.05 0.00 38 1018.2
20260503211106 20 219 1.6 12.9 0.00 0.05 0.00 38 1018.3
20260503210608 20 341 3.2 6.4 0.00 0.05 0.00 39 1018.5
20260503210111 20 261 1.6 6.4 0.00 0.05 0.00 38 1018.6
20260503205538 20 283 1.6 4.8 0.00 0.05 0.00 38 1018.6
20260503205040 20 10 0.0 4.8 0.00 0.05 0.00 41 1018.8
20260503204540 19 313 3.2 6.4 0.00 0.05 0.00 38 1018.8
20260503204043 20 254 1.6 9.7 0.00 0.05 0.00 40 1018.8
20260503203545 20 182 3.2 9.7 0.00 0.05 0.00 39 1018.9
20260503203015 20 262 1.6 8.0 0.00 0.05 0.00 40 1019.1
20260503202508 19 333 0.0 4.8 0.00 0.05 0.00 39 1019.1
20260503202004 20 324 1.6 8.0 0.00 0.05 0.00 37 1019.2
20260503201604 20 325 0.0 8.0 0.00 0.05 0.00 42 1019.3
20260503201103 19 342 0.0 11.3 0.00 0.05 0.00 39 1019.4
20260503200604 19 342 4.8 11.3 0.00 0.05 0.00 36 1019.5
20260503200109 19 298 1.6 6.4 0.00 0.05 0.00 39 1019.6
20260503195543 19 266 1.6 6.4 0.00 0.05 0.00 38 1019.7
20260503195045 19 243 1.6 8.0 0.00 0.05 0.00 41 1019.8
20260503194549 19 176 3.2 9.7 0.00 0.05 0.00 38 1020.1
20260503194054 19 270 3.2 9.7 0.00 0.05 0.00 38 1020.2
20260503193554 19 316 1.6 8.0 0.00 0.05 0.00 40 1020.2
20260503193011 19 226 1.6 11.3 0.00 0.05 0.00 38 1020.4
20260503192505 18 296 3.2 11.3 0.00 0.05 0.00 38 1020.4
20260503192008 18 288 1.6 4.8 0.00 0.05 0.00 39 1020.4
20260503191510 18 169 1.6 8.0 0.00 0.05 0.00 42 1020.4
20260503191022 18 170 1.6 8.0 0.00 0.05 0.00 40 1020.4
20260503190518 18 169 1.6 9.7 0.00 0.05 0.00 40 1020.6
20260503190117 18 291 3.2 9.7 0.00 0.05 0.00 39 1020.6
20260503185548 18 252 3.2 6.4 0.00 0.05 0.00 40 1020.6
20260503185045 18 279 1.6 6.4 0.00 0.05 0.00 41 1020.6
20260503184547 18 313 1.6 9.7 0.00 0.05 0.00 42 1020.7
20260503184050 17 249 1.6 9.7 0.00 0.05 0.00 41 1020.7
20260503183554 18 174 1.6 6.4 0.00 0.05 0.00 46 1020.8
20260503183103 17 290 3.2 9.7 0.00 0.05 0.00 45 1020.8
20260503182532 17 230 4.8 9.7 0.00 0.05 0.00 38 1020.9
20260503182031 17 208 1.6 4.8 0.00 0.05 0.00 45 1021.0
20260503181513 17 109 0.0 6.4 0.00 0.05 0.00 43 1021.0
20260503181029 17 140 1.6 6.4 0.00 0.05 0.00 44 1020.9
20260503180530 17 134 3.2 9.7 0.00 0.05 0.00 42 1021.1
20260503180129 17 110 3.2 9.7 0.00 0.05 0.00 40 1021.1
20260503175605 17 246 3.2 4.8 0.00 0.05 0.00 41 1021.3
20260503175003 17 248 1.6 9.7 0.00 0.05 0.00 41 1021.3
20260503174507 17 320 3.2 9.7 0.00 0.05 0.00 45 1021.4
20260503174025 17 273 1.6 6.4 0.00 0.05 0.00 42 1021.4
20260503173518 17 355 1.6 3.2 0.00 0.05 0.00 43 1021.5
20260503173123 16 355 0.0 4.8 0.00 0.05 0.00 44 1021.5
20260503172558 16 355 3.2 4.8 0.00 0.05 0.00 43 1021.5
20260503172053 16 336 1.6 4.8 0.00 0.05 0.00 43 1021.6
20260503171604 16 301 1.6 4.8 0.00 0.05 0.00 45 1021.7
20260503171053 16 144 1.6 12.9 0.00 0.05 0.00 45 1021.8
20260503170553 16 323 1.6 12.9 0.00 0.05 0.00 47 1021.9
20260503150557 12 181 0.0 6.4 0.00 0.05 0.00 65 1022.9
20260503140121 7 184 0.0 3.2 0.00 0.05 0.00 95 1022.8
20260503131020 5 294 0.0 1.6 0.00 0.05 0.00 96 1022.7
20260503130521 5 294 0.0 0.0 0.00 0.05 0.00 96 1022.7
20260503130113 4 294 0.0 0.0 0.00 0.05 0.00 96 1022.9
20260503120122 2 355 0.0 1.6 0.00 0.05 0.00 94 1022.4
20260503110552 2 355 0.0 1.6 0.00 0.05 0.00 94 1021.6
20260503100130 2 355 0.0 1.6 0.00 0.05 0.00 94 1021.2